Flag for Brazil Weather past 2 weeks in Porto Alegre, Rio Grande do Sul, Brazil

Now
75 °F

Partly sunny.


Feels Like: 78 °F
Forecast: 65 / 77 °F
Wind: 10 mph from South

Location: Porto Alegre Aero-Porto

Current Time: Dec 22, 2014 at 3:13:18 PM

Latest Report: Dec 22, 2014 at 2:00 PM


Visibility: N/A

Pressure: 29.95 "Hg

Humidity: 57%

Dew point: 59 °F

Location of Porto AlegreLocation

Historic Weather in Porto Alegre — Graph

°F

Porto Alegre temperature yesterday

Maximum temperature yesterday: 75 °F (at 12:00 PM)
Minimum temperature yesterday: 70 °F (at 1:00 AM)
Average temperature yesterday: 72 °F

Past Weeks' High & Low Weather Summary

 TemperatureHumidityPressure
High97 °F (Dec 8, 3:00 PM)100% (Dec 10, 7:00 AM)30.07 "Hg (Dec 10, 7:00 AM)
Low37 °F (Dec 11, 12:00 AM)31% (Dec 19, 3:00 PM)29.47 "Hg (Dec 20, 7:00 PM)
Average76 °F77%29.83 "Hg
* Reported Dec 7 2:00 PM — Dec 22 2:00 PM, Porto Alegre, Weather by CustomWeather, © 2014

Note: Actual official high and low records may vary slightly from our data, if they occured in-between our weather recording intervals... More about our weather records

Advertising

Porto Alegre weather history for previous 24 hours

 ConditionsComfort  
Time TempWeatherWind HumidityBarometerVisibility
2:00 PM
Dec 22
75 °FPartly sunny.10 mph57%29.95 "HgN/A
1:00 PM75 °FPartly sunny.9 mph61%29.95 "HgN/A
12:00 PM73 °FBroken clouds.10 mph65%29.95 "HgN/A
11:00 AM72 °FBroken clouds.9 mph69%29.95 "HgN/A
10:00 AM72 °FPartly sunny.10 mph73%29.95 "HgN/A
9:00 AM68 °FPartly sunny.13 mph78%29.95 "HgN/A
8:00 AM68 °FPartly sunny.8 mph83%29.89 "HgN/A
7:00 AM68 °FScattered clouds.8 mph83%29.86 "HgN/A
6:00 AM68 °FPartly cloudy.9 mph83%29.83 "HgN/A
5:00 AM70 °FMostly cloudy.10 mph83%29.80 "HgN/A
4:00 AM70 °FMostly cloudy.10 mph83%29.77 "HgN/A
3:00 AM70 °FMostly cloudy.10 mph88%29.74 "HgN/A
2:00 AM72 °FMostly cloudy.3 mph88%29.71 "HgN/A
1:00 AM72 °FMostly cloudy.6 mph88%29.74 "Hg4 mi
12:00 AM72 °FFog.6 mph94%29.71 "Hg3 mi
11:00 PM
Dec 21
72 °FOvercast.7 mph94%29.68 "HgN/A
10:00 PM72 °FMostly cloudy.6 mph94%29.65 "HgN/A
9:00 PM72 °FLight rain. Mostly cloudy.3 mph94%29.59 "Hg6 mi
8:00 PM72 °FDrizzle. Fog.7 mph94%29.59 "Hg2 mi
7:00 PM72 °FDrizzle. Fog.8 mph100%29.53 "Hg2 mi
6:00 PM72 °FDrizzle. Broken clouds.6 mph100%29.47 "Hg4 mi
5:00 PM72 °FLight rain. Fog.6 mph100%29.50 "Hg3 mi
4:00 PM72 °FThunderstorms. Mostly cloudy.6 mph100%29.47 "Hg2 mi
3:00 PM75 °FLight rain. Fog.7 mph94%29.53 "Hg2 mi
Weather by CustomWeather, © 2014

See weather overviewHow to use our weather pages